Tracking 27126 objects as of 30-Mar-2023
HD Live streaming from Space Station
objects crossing your sky now

SAUDISAT 5A

Track SAUDISAT 5A now!
10-day predictions


NORAD ID: 43831
Int'l Code: 2018-102A
Perigee: 531.7 km
Apogee: 548.3 km
Inclination: 97.5 °
Period: 95.3 minutes
Semi major axis: 6911 km
RCS: Unknown
Launch date: December 7, 2018
Source: Saudi Arabia (SAUD)
Launch site: Jiuquan Satellite Launch Center, China (JSC)
Your satellite tracking list
Your tracking list is empty




NASA's NSSDC Master Catalog

Two Line Element Set (TLE):
1 43831U 18102A   23089.24938072  .00005214  00000-0  31471-3 0  9999
2 43831  97.4603 160.6973 0011996 277.0924 154.7943 15.11086419237303
Source of the keplerian elements: AFSPC